Location: Asheville, NC
(35.6000°N, 82.5500°W)
Time: 04:43:22
(UTC-05:00)

STARS - Pass Details

Date: 11 January 2018
Orbit: 625 x 641 km, 98.3° (Epoch: 22 January)

Event Time Altitude Azimuth Distance (km) Brightness Sun altitude
Rises 04:49:34 0° 131° (SE) 2,897 ? -34.1°
Reaches altitude 10° 04:52:14 10° 114° (ESE) 1,993 ? -33.5°
Maximum altitude 04:55:20 20° 68° (ENE) 1,468 ? -32.9°
Enters shadow 04:56:42 17° 44° (NE) 1,585 ? -32.6°
